Location: ?eský Šternberk
(49.8103°N, 14.9271°E)
Time: 00:04:46
(UTC+00:00)

Daily predictions for brighter satellites

Satellite Brightness Start Highest point End
(mag) Time Altitude Azimuth Time Altitude Azimuth Time Altitude Azimuth
Cosmos 1937 Rocket 3.5 00:04:13 25° SSW 00:07:23 85° ESE 00:12:39 10° NNE
Cosmos 923 Rocket 4.2 00:02:50 10° NNW 00:07:59 54° WSW 00:11:01 23° S
Cosmos 1844 Rocket 3.8 00:09:58 16° SSE 00:13:37 32° ESE 00:18:30 10° NE
SL-16 R/B 4.4 00:09:31 10° ESE 00:14:44 29° ENE 00:19:55 10° N
Cosmos 1898 Rocket 3.7 00:13:33 21° SW 00:16:58 63° WNW 00:22:07 10° NNE
Cosmos 1867 4.3 00:14:33 21° S 00:17:42 41° ESE 00:22:49 10° NE
Cosmos 1727 Rocket 4.4 00:12:18 10° N 00:18:36 62° ENE 00:24:53 10° SSE
GEOS 3 Rocket 3.5 00:13:27 10° NE 00:18:39 85° SE 00:22:16 20° SW
Cosmos 1536 Rocket 4.1 00:17:51 19° SSE 00:20:45 51° E 00:25:03 10° NNE
MOZ.5/SAFIR/RUBIN 5/SL-8 3.8 00:20:45 17° SSE 00:24:21 85° ENE 00:29:00 10° NNW
SL-19 R/B 3.4 00:23:22 10° NNE 00:26:18 83° WNW 00:27:19 36° SSW
CZ-2D R/B 3.3 00:26:18 10° NNE 00:31:12 36° E 00:35:45 11° SSE
COBE Rocket 4.2 00:26:35 10° NNE 00:31:46 71° E 00:35:31 19° S
Cosmos 1606 3.2 00:30:29 10° NNW 00:33:50 38° W 00:35:21 25° SW
Helios 1A Rocket 3.1 00:32:16 25° SSW 00:34:10 48° W 00:37:52 10° NNW
Cosmos 1900 4.4 00:31:44 21° SW 00:35:15 88° ESE 00:40:22 10° NE
ADEOS II 3.7 00:30:51 10° NE 00:35:18 27° E 00:39:44 10° SSE
Cosmos 1869 3.9 00:34:28 10° NNW 00:37:52 36° W 00:39:31 23° SW
USA 234 4.3 00:32:41 10° ENE 00:38:54 49° N 00:45:09 10° WNW
Cosmos 1607 4.0 00:32:53 10° NW 00:39:22 88° NE 00:45:41 10° SE
CZ-2C R/B 3.0 00:34:51 10° SSE 00:40:07 67° ENE 00:45:33 10° N
SL-16 R/B 3.8 00:37:17 10° WNW 00:40:56 18° W 00:43:09 14° SW
Cosmos 2341 Rocket 4.3 00:36:54 19° SSW 00:41:22 56° WNW 00:47:31 10° N
Meteor 1-27 4.3 00:36:14 10° NNW 00:42:06 84° W 00:47:19 13° S
CENTAUR R/B 3.7 00:37:12 10° WSW 00:43:04 44° NNW 00:50:20 10° NE
Cosmos 1437 Rocket 2.9 00:41:31 20° S 00:44:00 62° E 00:47:44 10° NNE
Cosmos 1461 3.6 00:43:01 14° WSW 00:46:08 43° NW 00:49:51 10° NNE
Cosmos 1603 3.7 00:41:07 10° NNW 00:46:51 68° WSW 00:52:31 10° SSE
Cosmos 1680 Rocket 4.3 00:43:55 10° NW 00:48:34 34° WSW 00:51:38 18° SSW
Cosmos 2228 3.4 00:44:45 10° NNW 00:48:55 49° W 00:51:39 20° SSW
Cosmos 1943 3.7 00:47:01 10° NW 00:52:15 41° WSW 00:56:23 16° S
Cosmos 2227 Rocket 4.3 00:49:21 10° W 00:53:34 21° NW 00:57:48 10° N
Cosmos 1812 4.1 00:52:26 10° N 00:55:43 33° ENE 00:58:58 10° SE
Resurs 1-4 Rocket 2.4 00:53:24 10° NNE 00:58:39 63° ESE 01:03:21 13° S
NPP 3.7 00:54:01 10° NNE 00:59:27 80° ESE 01:04:01 15° SSW
Cosmos 1821 Rocket 4.0 00:56:51 16° SSW 01:01:54 80° W 01:08:08 10° N
USA 238 DEB 3.6 00:59:38 16° SSW 01:04:44 79° SE 01:11:35 10° NE
Cosmos 724 4.2 00:58:55 10° NW 01:04:45 82° SW 01:10:36 10° SSE
USA 238 3.6 00:59:40 16° SSW 01:04:47 79° SE 01:11:38 10° NE
BREEZE-M DEB (TANK) 4.3 01:03:52 10° WSW 01:04:16 11° WSW 01:04:16 11° WSW
Cosmos 1892 Rocket 4.3 01:06:30 10° SSE 01:10:45 50° E 01:15:05 10° NNE
BlueWalker 3 1.9 01:07:34 10° WNW 01:11:20 80° NNE 01:15:04 10° ESE
Cosmos 2058 Rocket 4.1 01:07:56 10° N 01:12:13 46° ENE 01:16:26 10° SSE
Cosmos 1048 Rocket 4.1 01:16:37 10° NNW 01:21:46 60° WSW 01:26:57 10° S
Cosmos 1833 Rocket 4.1 01:18:28 10° NNW 01:23:50 42° NE 01:29:09 10° ESE
Cosmos 494 Rocket 4.5 01:20:20 10° NW 01:25:14 41° WSW 01:30:08 10° S
Iridium 4 Rocket 4.2 01:21:58 10° N 01:26:21 47° E 01:31:06 10° SSE
Cosmos 921 Rocket 3.6 01:24:17 10° NW 01:28:09 36° WSW 01:31:45 11° SSW
Cosmos 1544 4.3 01:28:10 10° SSE 01:30:20 24° E 01:32:32 10° NE
IDEFIX/ARIANE 42P 2.9 01:27:52 10° N 01:32:59 55° WNW 01:37:48 11° SW
Cosmos 1934 Rocket 4.2 01:27:37 10° S 01:33:59 82° E 01:40:24 10° N
Cosmos 1125 Rocket 3.7 01:30:37 10° SSW 01:35:48 72° ESE 01:41:07 10° NNE
Cosmos 2123 Rocket 4.0 01:30:50 10° NNW 01:37:01 78° W 01:43:14 10° S
MSX 4.1 01:32:32 10° N 01:38:11 61° WNW 01:43:47 10° SSW
Cosmos 1844 3.9 01:32:48 12° SW 01:38:13 75° WNW 01:44:03 10° NNE
Cosmos 2263 Rocket 4.1 01:35:50 10° W 01:40:02 21° NW 01:44:17 10° N
COSMOS 2441 4.4 01:36:13 10° N 01:41:01 75° WNW 01:45:50 10° SSW
Meteor 1-28 Rocket 3.0 01:37:46 10° S 01:41:18 76° WSW 01:44:53 10° NNW
USA 267 4.4 01:38:34 10° ENE 01:44:16 31° SE 01:49:55 10° S
Cosmos 1606 Rocket 4.4 01:43:30 10° NNW 01:47:32 34° W 01:51:30 10° SSW
NOSS 3-2 (C) 4.3 01:43:40 10° WSW 01:48:59 43° NNW 01:55:19 10° NE
Cosmos 1782 3.8 01:48:21 10° N 01:52:05 46° ENE 01:55:47 10° SSE
CZ-2C R/B 3.3 01:47:45 10° N 01:53:03 59° WNW 01:58:02 10° SSW
Genesis I 3.1 01:52:33 10° NW 01:56:06 51° SW 01:59:37 10° SSE
Iridium 2 3.2 01:54:18 10° SSW 01:56:31 38° W 01:58:48 10° N
Cosmos 1844 Rocket 3.2 01:51:53 10° SW 01:57:18 50° NW 02:02:44 10° NNE
UNK 3.8 01:52:42 10° SSE 01:57:18 88° ENE 02:01:55 10° NNW
SL-16 R/B 2.6 01:51:41 10° S 01:57:53 66° WSW 02:04:06 10° NNW
Cosmos 2150 Rocket 4.4 01:54:28 10° S 01:59:39 65° ESE 02:04:58 10° NNE
Cosmos 220 Rocket 3.9 01:55:48 10° NNW 01:59:59 87° WSW 02:04:06 10° SSE
Cosmos 1867 4.3 01:56:01 10° WSW 02:01:16 47° NW 02:06:35 10° NNE
Cosmos 1726 Rocket 4.4 01:57:25 10° NNW 02:01:24 33° W 02:05:20 10° SSW
Cosmos 614 Rocket 4.0 02:05:47 10° NNW 02:10:58 89° WSW 02:16:03 10° SSE
CZ-2D R/B 2.9 02:06:19 10° N 02:11:15 39° WNW 02:16:06 10° SW
